Back to catalog

ARIANE 44LP R/B

AliveHEO
NORAD 20170·ROCKET BODY·🇫🇷 France

Launched Aug 8, 1989 from Guiana Space Centre

Loading…

Next Passes (next 24 hours)

TLE

FreshSource: Space-Track

Epoch: Sep 14, 2026, 14:02 UTC

1 20170U 89062C   26257.58520100  .00000992  00000-0  17055-2 0  9998
2 20170   7.3693  78.9148 7059646  75.8368 348.0654  2.49824586317268

Track ARIANE 44LP R/B in real time with AllMySat

Download on the App Store